TimeEDT,TemperatureF,Dew PointF,Humidity,Sea Level PressureIn,VisibilityMPH,Wind Direction,Wind SpeedMPH,Gust SpeedMPH,PrecipitationIn,Events,Conditions,WindDirDegrees,DateUTC
12:15 AM,60.8,50.0,68,30.02,10.0,North,8.1,-,N/A,,Scattered Clouds,350,2012-10-07 04:15:00
12:35 AM,59.0,46.4,63,30.02,-9999.0,NNW,6.9,-,N/A,,Clear,340,2012-10-07 04:35:00
12:55 AM,59.0,46.4,63,30.02,10.0,North,6.9,-,N/A,,Clear,360,2012-10-07 04:55:00
1:15 AM,59.0,46.4,63,30.01,10.0,North,4.6,-,N/A,,Clear,10,2012-10-07 05:15:00
1:35 AM,59.0,46.4,63,30.02,10.0,North,6.9,-,N/A,,Scattered Clouds,360,2012-10-07 05:35:00
1:55 AM,59.0,46.4,63,30.02,10.0,North,5.8,-,N/A,,Mostly Cloudy,360,2012-10-07 05:55:00
2:15 AM,59.0,46.4,63,30.02,10.0,North,5.8,-,N/A,,Overcast,360,2012-10-07 06:15:00
2:35 AM,59.0,44.6,59,30.04,10.0,NNW,5.8,-,N/A,,Overcast,340,2012-10-07 06:35:00
2:55 AM,57.2,44.6,63,30.04,10.0,North,4.6,-,N/A,,Overcast,350,2012-10-07 06:55:00
3:15 AM,57.2,44.6,63,30.04,10.0,North,4.6,-,N/A,,Overcast,350,2012-10-07 07:15:00
3:35 AM,57.2,44.6,63,30.07,10.0,WNW,8.1,-,N/A,,Overcast,300,2012-10-07 07:35:00
3:55 AM,55.4,46.4,72,30.07,10.0,West,11.5,-,N/A,,Unknown,280,2012-10-07 07:55:00
4:15 AM,51.8,48.2,88,30.07,10.0,NW,8.1,-,N/A,Rain,Light Rain,320,2012-10-07 08:15:00
4:35 AM,51.8,50.0,94,30.06,7.0,NNW,8.1,-,N/A,,Unknown,330,2012-10-07 08:35:00
4:55 AM,50.0,50.0,100,30.04,10.0,North,6.9,-,0.02,Rain,Rain,350,2012-10-07 08:55:00
5:15 AM,50.0,48.2,94,30.05,10.0,North,9.2,-,N/A,Rain,Light Rain,360,2012-10-07 09:15:00
5:35 AM,50.0,48.2,94,30.06,10.0,North,9.2,-,0.01,Rain,Light Rain,360,2012-10-07 09:35:00
5:55 AM,50.0,48.2,94,30.06,10.0,North,6.9,-,0.01,Rain,Rain,350,2012-10-07 09:55:00
6:15 AM,50.0,50.0,100,30.07,10.0,NNW,6.9,-,N/A,Rain,Rain,340,2012-10-07 10:15:00
6:35 AM,50.0,48.2,94,30.06,1.8,NNW,6.9,-,0.10,,Unknown,340,2012-10-07 10:35:00
6:55 AM,50.0,48.2,94,30.06,10.0,NNW,9.2,-,0.10,,Overcast,330,2012-10-07 10:55:00
7:15 AM,50.0,48.2,94,30.06,10.0,North,5.8,-,N/A,,Overcast,350,2012-10-07 11:15:00
7:35 AM,50.0,48.2,94,30.05,10.0,North,6.9,-,N/A,,Overcast,360,2012-10-07 11:35:00
7:55 AM,50.0,50.0,100,30.05,-9999.0,North,6.9,-,N/A,,Unknown,360,2012-10-07 11:55:00
8:15 AM,50.0,50.0,100,30.06,10.0,North,5.8,-,N/A,,Overcast,350,2012-10-07 12:15:00
8:35 AM,50.0,50.0,100,30.08,10.0,NW,9.2,-,N/A,,Overcast,320,2012-10-07 12:35:00
8:55 AM,50.0,50.0,100,30.07,10.0,NNW,8.1,-,N/A,,Overcast,330,2012-10-07 12:55:00
9:15 AM,50.0,50.0,100,30.09,10.0,North,5.8,-,N/A,,Overcast,350,2012-10-07 13:15:00
9:35 AM,50.0,50.0,100,30.09,10.0,NW,9.2,-,N/A,,Overcast,320,2012-10-07 13:35:00
9:55 AM,50.0,50.0,100,30.15,5.0,WNW,10.4,-,0.07,Rain,Heavy Rain,290,2012-10-07 13:55:00
10:15 AM,50.0,50.0,100,30.14,-9999.0,NW,8.1,16.1,0.04,Rain-Thunderstorm,Thunderstorms and Rain,310,2012-10-07 14:15:00
10:35 AM,50.0,50.0,100,30.13,4.0,NNW,5.8,-,0.11,,Unknown,330,2012-10-07 14:35:00
10:55 AM,50.0,50.0,100,30.09,4.0,NE,9.2,-,0.19,Rain-Thunderstorm,Heavy Thunderstorms and Rain,40,2012-10-07 14:55:00
11:15 AM,50.0,50.0,100,30.07,5.0,NE,8.1,-,0.03,Rain,Light Rain,40,2012-10-07 15:15:00
11:35 AM,50.0,50.0,100,30.09,10.0,NNW,6.9,-,0.03,Rain,Light Rain,340,2012-10-07 15:35:00
11:55 AM,51.8,51.8,100,30.09,7.0,NNW,6.9,-,0.03,Rain,Light Rain,340,2012-10-07 15:55:00
12:15 PM,51.8,51.8,100,30.09,10.0,NNW,8.1,-,N/A,,Overcast,330,2012-10-07 16:15:00
12:35 PM,51.8,51.8,100,30.08,10.0,North,8.1,-,N/A,,Overcast,350,2012-10-07 16:35:00
12:55 PM,51.8,51.8,100,30.08,10.0,North,8.1,-,N/A,,Overcast,360,2012-10-07 16:55:00
1:15 PM,53.6,51.8,94,30.07,10.0,North,6.9,-,N/A,,Overcast,350,2012-10-07 17:15:00
1:35 PM,51.8,51.8,100,30.07,10.0,NNW,6.9,-,N/A,,Overcast,340,2012-10-07 17:35:00
1:55 PM,51.8,50.0,94,30.06,10.0,North,8.1,-,N/A,,Overcast,350,2012-10-07 17:55:00
2:15 PM,51.8,51.8,100,30.05,10.0,NNW,6.9,-,N/A,,Overcast,340,2012-10-07 18:15:00
2:35 PM,51.8,51.8,100,30.05,5.0,NNW,4.6,-,N/A,,Overcast,330,2012-10-07 18:35:00
2:55 PM,51.8,51.8,100,30.04,2.5,NNW,4.6,-,N/A,,Unknown,330,2012-10-07 18:55:00
3:15 PM,51.8,51.8,100,30.05,2.5,NNW,4.6,-,N/A,,Drizzle,330,2012-10-07 19:15:00
3:35 PM,51.8,51.8,100,30.04,-9999.0,North,3.5,-,N/A,,Overcast,350,2012-10-07 19:35:00
3:55 PM,51.8,51.8,100,30.04,2.0,NNW,6.9,-,N/A,,Light Drizzle,340,2012-10-07 19:55:00
4:15 PM,51.8,51.8,100,30.03,2.0,NNW,4.6,-,N/A,,Light Drizzle,330,2012-10-07 20:15:00
4:35 PM,51.8,51.8,100,30.04,4.0,NNW,3.5,-,N/A,,Overcast,330,2012-10-07 20:35:00
4:55 PM,51.8,51.8,100,30.04,10.0,NNW,3.5,-,N/A,,Overcast,340,2012-10-07 20:55:00
5:15 PM,51.8,51.8,100,30.06,10.0,WNW,4.6,-,N/A,,Overcast,300,2012-10-07 21:15:00
5:35 PM,51.8,51.8,100,30.06,5.0,WNW,3.5,-,N/A,,Overcast,300,2012-10-07 21:35:00
5:55 PM,51.8,51.8,100,30.08,7.0,West,4.6,-,N/A,,Overcast,280,2012-10-07 21:55:00
6:15 PM,51.8,51.8,100,30.09,5.0,WNW,5.8,-,N/A,,Overcast,290,2012-10-07 22:15:00
6:35 PM,51.8,51.8,100,30.10,2.0,WNW,9.2,-,N/A,Rain,Rain,290,2012-10-07 22:35:00
6:55 PM,51.8,51.8,100,30.11,2.0,WNW,4.6,-,N/A,,Drizzle,290,2012-10-07 22:55:00
7:15 PM,50.0,50.0,100,30.11,4.0,WNW,9.2,-,N/A,,Overcast,300,2012-10-07 23:15:00
7:35 PM,50.0,50.0,100,30.14,7.0,WNW,8.1,-,N/A,,Overcast,300,2012-10-07 23:35:00
7:55 PM,50.0,50.0,100,30.15,5.0,WNW,5.8,-,N/A,,Overcast,300,2012-10-07 23:55:00
8:15 PM,50.0,50.0,100,30.15,3.0,NW,8.1,-,N/A,,Overcast,310,2012-10-08 00:15:00
8:35 PM,50.0,50.0,100,30.15,10.0,NW,8.1,-,0.01,,Overcast,320,2012-10-08 00:35:00
8:55 PM,50.0,50.0,100,30.15,10.0,NW,8.1,-,0.01,,Overcast,310,2012-10-08 00:55:00
9:15 PM,50.0,50.0,100,30.15,10.0,North,4.6,-,N/A,,Overcast,350,2012-10-08 01:15:00
9:35 PM,50.0,50.0,100,30.17,10.0,Calm,Calm,-,N/A,,Overcast,0,2012-10-08 01:35:00
9:55 PM,50.0,50.0,100,30.16,10.0,Calm,Calm,-,N/A,,Mostly Cloudy,0,2012-10-08 01:55:00
10:15 PM,50.0,50.0,100,30.17,-9999.0,Calm,Calm,-,N/A,,Mostly Cloudy,0,2012-10-08 02:15:00
10:35 PM,50.0,50.0,100,30.16,10.0,WNW,3.5,-,N/A,,Overcast,290,2012-10-08 02:35:00
10:55 PM,50.0,50.0,100,30.16,10.0,WNW,4.6,-,N/A,,Overcast,300,2012-10-08 02:55:00
11:15 PM,50.0,50.0,100,30.17,10.0,WNW,3.5,-,N/A,,Overcast,300,2012-10-08 03:15:00
11:35 PM,50.0,50.0,100,30.17,10.0,NW,3.5,-,N/A,,Overcast,310,2012-10-08 03:35:00
11:55 PM,50.0,50.0,100,30.17,10.0,NW,5.8,-,N/A,,Overcast,320,2012-10-08 03:55:00